Wind_Speed
24 21 19 18 18 20 23 26 28 29 28 28 32 35 36 37 38 42 45 44 47 49 46 49 49 48 44 46 47 47 56 52 54 46 52 41 44 43 43 42 42 38 43
22 21 22 25 28 30 33 35 37 37 36 36 37 39 40 39 37 39 41 42 43 43 48 52 47 46 42 49 46 50 49 54 54 50 41 39 42 43 43 41 40 36 45
35 36 37 38 39 41 43 45 44 44 39 39 41 41 40 41 39 38 39 40 40 42 44 41 50 48 40 46 45 46 49 53 56 47 38 38 42 43 41 39 38 45 45
43 45 48 48 50 50 46 48 50 49 48 47 45 43 42 42 40 38 37 39 40 41 43 40 49 46 50 47 50 50 44 52 49 43 37 42 44 43 42 39 43 45 41
51 52 51 49 49 51 50 48 49 50 49 51 49 46 43 42 39 37 36 37 39 40 39 43 47 53 55 54 48 53 47 49 48 37 41 44 45 44 43 44 44 43 38
54 52 50 53 54 53 49 48 47 48 48 47 46 45 44 42 39 37 37 37 37 39 41 39 44 50 52 55 53 54 56 46 38 41 45 44 44 46 47 41 41 38 35
51 52 51 52 48 44 43 44 45 44 43 42 41 42 42 42 41 39 39 39 38 39 40 45 42 47 53 56 58 57 57 51 41 45 46 44 43 41 40 39 36 33 32
39 40 41 42 43 41 40 39 41 43 42 41 40 40 42 43 43 42 41 40 40 40 41 44 47 50 50 55 55 55 49 39 43 45 43 41 36 36 35 32 32 31 31
31 31 32 33 36 38 37 38 39 41 41 40 40 39 39 40 42 43 43 41 41 42 40 45 50 52 53 54 51 48 42 43 44 42 38 34 34 33 33 34 28 29 32
33 35 36 34 34 37 41 41 40 41 41 41 41 40 40 38 40 41 40 41 42 42 43 47 49 45 49 47 43 39 39 39 41 36 36 32 30 31 29 28 29 33 35
38 38 38 39 35 33 37 38 38 37 37 37 37 37 37 37 37 38 39 39 40 39 44 44 43 42 41 38 36 37 34 39 34 36 36 33 30 28 27 28 30 33 36
38 36 38 38 37 35 34 34 36 39 39 39 39 40 39 37 37 37 39 39 40 39 43 44 40 36 36 33 34 34 40 32 33 32 31 29 27 24 26 28 32 35 37
41 43 42 36 36 37 37 36 37 37 37 36 36 36 38 38 37 36 36 38 40 41 39 35 35 33 28 27 32 27 26 30 29 29 27 24 23 23 28 32 34 36 37
42 44 45 42 36 33 34 34 34 36 35 33 33 33 34 33 32 33 33 33 33 33 32 29 21 15 17 20 21 21 21 20 23 23 23 23 27 30 32 34 35 38 41
35 36 40 41 40 35 34 34 34 33 31 29 30 30 29 28 26 25 24 22 20 18 12 8 5 4 5 6 8 12 16 16 17 22 27 29 31 32 34 36 39 42 43
41 41 37 38 39 36 36 34 31 27 25 24 24 21 17 14 8 6 5 4 5 3 3 3 2 2 5 9 12 15 17 19 23 26 28 30 32 35 39 41 42 42 42
41 42 42 40 37 33 30 24 18 13 8 7 8 8 7 7 3 2 1 1 1 2 3 5 7 10 12 13 15 17 20 22 24 27 30 33 37 40 42 43 44 44 44
35 35 35 27 24 26 24 19 15 12 9 9 8 7 7 7 6 5 3 3 4 6 9 11 12 13 15 16 18 20 22 25 28 32 35 39 41 44 45 46 47 46 45
32 30 27 28 27 24 21 18 14 8 6 6 3 0 2 5 8 9 9 9 10 11 11 13 14 15 17 19 21 25 28 31 35 38 41 43 46 48 48 48 47 46 44
32 32 32 25 19 19 17 16 11 7 5 5 5 6 9 11 11 11 11 11 13 14 15 16 18 21 23 26 30 33 36 39 42 44 47 49 50 50 49 47 45 43 41
33 24 16 20 20 20 14 9 6 4 6 8 9 11 13 13 13 14 14 14 16 17 19 22 25 29 32 35 38 41 44 47 49 51 52 51 50 47 46 45 43 40 38
18 21 23 22 16 13 11 7 6 9 10 12 14 15 15 14 15 17 18 20 21 24 27 31 34 37 40 42 45 48 51 52 52 53 52 50 47 45 43 41 39 37 35
21 21 18 16 13 10 8 8 10 11 13 15 15 16 17 19 20 22 24 27 30 32 35 37 41 44 47 50 52 54 54 54 54 52 49 47 44 42 40 38 36 34 33
18 16 14 11 9 9 10 12 13 14 16 18 20 21 22 25 27 29 32 34 37 40 42 45 49 52 54 55 55 55 54 53 50 48 45 43 41 39 37 35 33 31 31
19 16 14 12 12 12 14 15 17 19 21 23 25 27 30 32 34 36 39 42 45 48 51 52 54 55 55 54 54 53 51 49 46 44 42 40 39 37 36 34 32 31 30
16 14 14 14 15 16 17 19 20 23 26 29 31 34 37 39 42 45 47 50 52 53 54 54 55 55 54 53 52 50 48 46 44 43 41 40 39 37 36 35 33 30 29
Wind_Direction
248 239 245 254 264 276 287 292 293 293 293 298 301 300 294 288 280 274 271 269 266 264 247 263 253 265 262 270 274 266 270 264 254 258 263 258 262 262 264 267 274 285 294
245 255 268 276 283 287 288 288 290 292 290 294 296 298 296 289 283 279 274 269 266 266 252 255 257 256 269 267 261 271 268 264 253 254 256 260 262 262 264 268 275 288 296
261 265 275 282 287 292 293 291 289 291 290 294 293 292 291 288 283 280 277 271 265 262 262 250 263 255 279 260 275 262 266 272 257 255 258 259 260 261 261 267 277 286 294
274 280 282 284 286 287 285 286 287 288 290 292 290 286 286 284 283 280 277 273 267 263 262 256 256 270 268 264 272 261 266 263 255 258 256 259 258 257 261 269 279 290 284
275 278 285 286 287 286 285 284 284 285 286 286 285 283 279 278 279 279 276 273 269 266 262 256 256 264 265 257 272 260 257 253 256 251 254 254 256 255 263 276 284 282 278
278 280 284 285 285 281 280 281 283 285 283 281 279 278 275 275 277 277 276 274 272 270 261 260 263 257 267 262 272 265 255 252 249 248 250 253 253 263 276 278 278 274 274
277 277 276 277 280 277 279 280 281 281 281 281 279 276 274 272 273 273 273 271 270 268 261 262 261 258 263 266 268 263 256 247 235 241 247 254 263 275 273 276 272 270 277
286 283 279 276 277 279 279 278 277 278 278 278 278 276 274 272 271 270 271 268 267 267 265 262 264 262 263 268 268 260 252 239 239 244 251 262 271 272 278 265 264 273 281
286 287 283 280 279 279 279 279 279 279 279 277 275 275 274 270 268 269 271 270 267 267 266 262 263 267 268 271 272 266 251 248 248 255 264 267 270 276 271 260 271 282 291
287 289 289 290 289 283 282 281 279 277 277 278 279 278 275 271 269 268 268 268 267 267 265 264 267 273 272 276 277 266 249 244 250 260 259 264 277 276 268 269 280 286 291
285 282 282 283 289 289 283 282 280 279 279 280 280 280 279 276 273 269 266 262 262 263 262 264 267 270 274 273 265 250 248 246 252 251 258 265 278 275 268 278 288 292 294
290 288 285 287 287 287 283 283 283 280 278 278 278 280 280 278 275 272 270 269 267 263 261 264 267 268 269 263 253 233 241 246 250 258 263 269 275 270 278 287 290 292 293
292 294 291 288 287 288 287 287 286 285 285 285 282 280 279 276 274 272 269 265 264 262 265 266 265 263 258 248 238 248 242 249 259 262 267 273 275 283 286 288 288 289 292
284 285 291 291 291 288 287 287 285 283 284 284 283 281 278 277 275 272 269 267 266 264 264 262 255 253 251 241 239 244 258 264 261 270 275 283 286 285 285 286 290 298 302
291 296 292 290 288 288 288 289 289 286 283 281 281 281 278 275 273 270 266 263 259 256 244 219 190 186 214 228 241 249 253 264 276 280 282 283 284 286 291 296 299 299 299
282 290 294 293 287 288 292 295 291 284 279 279 281 275 268 259 229 196 165 152 133 105 85 80 71 265 256 253 251 252 259 266 269 273 277 282 289 294 296 297 296 295 296
284 285 289 289 290 290 287 277 267 255 229 192 182 177 199 205 190 179 178 160 21 359 293 263 248 245 248 254 259 261 264 270 276 281 287 291 292 293 294 294 295 295 297
291 289 284 270 261 255 244 238 227 213 212 222 198 178 181 189 201 213 238 252 267 262 259 258 260 260 261 265 269 274 279 284 286 287 289 290 291 292 293 293 294 295 296
284 266 242 228 225 224 220 216 220 221 198 215 230 34 349 260 246 248 249 252 253 257 261 263 266 270 275 279 281 283 284 286 287 288 288 290 291 292 293 293 293 293 292
256 241 237 237 228 217 223 230 213 203 214 249 266 276 272 269 270 270 270 270 270 271 273 274 274 276 278 281 283 285 286 287 288 290 291 291 291 291 292 291 291 289 288
249 240 223 224 240 251 229 209 204 225 275 279 280 278 275 272 270 270 269 268 269 270 273 276 279 282 285 286 286 288 289 291 291 291 291 291 292 292 292 292 290 289 287
230 254 260 253 229 211 214 218 244 260 268 276 275 270 268 269 272 273 274 275 277 280 282 284 285 286 288 290 291 291 291 291 292 292 293 293 292 292 291 290 288 287 286
258 258 240 225 222 224 240 262 277 285 281 271 268 271 274 277 279 281 282 282 284 285 286 288 290 291 292 292 292 292 292 292 292 292 292 292 292 291 290 289 288 287 285
244 233 229 227 236 253 271 278 272 264 267 272 277 279 282 284 285 286 287 289 291 293 293 294 295 295 294 293 293 292 292 292 292 292 291 291 290 289 289 288 286 284 282
234 237 244 251 260 265 260 261 266 271 275 277 281 284 286 289 291 292 293 294 295 297 297 296 295 294 294 294 294 293 293 292 291 290 290 288 287 286 285 283 281 279 279
236 241 250 255 255 257 261 266 271 275 280 283 286 289 290 291 293 294 296 297 297 297 296 296 296 295 295 294 293 292 292 291 290 289 288 285 284 282 281 279 278 277 275
Height
3094 3094 3095 3095 3095 3095 3095 3095 3094 3093 3093 3090 3087 3084 3081 3078 3076 3073 3071 3072 3073 3072 3073 3075 3075 3079 3078 3075 3074 3073 3071 3067 3067 3067 3069 3070 3072 3073 3072 3071 3070 3069 3067
3089 3088 3088 3088 3087 3087 3088 3087 3085 3084 3083 3081 3078 3075 3072 3068 3065 3063 3061 3061 3061 3059 3063 3065 3064 3066 3065 3064 3061 3061 3060 3056 3056 3056 3056 3059 3063 3062 3062 3061 3059 3057 3057
3081 3080 3080 3080 3079 3079 3077 3076 3074 3072 3071 3068 3066 3064 3061 3058 3055 3053 3051 3049 3049 3050 3051 3050 3052 3052 3051 3051 3050 3048 3046 3044 3043 3043 3044 3049 3050 3050 3049 3048 3048 3048 3046
3072 3071 3070 3070 3068 3066 3064 3063 3061 3058 3056 3055 3053 3051 3049 3046 3044 3042 3041 3039 3039 3038 3040 3041 3040 3039 3040 3039 3037 3035 3033 3033 3031 3031 3035 3038 3039 3038 3037 3038 3038 3037 3035
3062 3060 3058 3056 3054 3052 3051 3050 3047 3046 3044 3041 3038 3037 3036 3034 3032 3031 3029 3028 3028 3028 3026 3029 3030 3030 3027 3026 3023 3021 3021 3020 3018 3020 3024 3026 3027 3026 3027 3029 3029 3025 3024
3050 3048 3046 3044 3042 3040 3038 3035 3033 3032 3031 3027 3025 3023 3022 3021 3021 3020 3018 3017 3017 3017 3016 3017 3019 3017 3015 3013 3011 3010 3008 3006 3008 3012 3014 3016 3015 3016 3019 3018 3016 3014 3013
3038 3036 3034 3031 3029 3028 3025 3022 3021 3019 3017 3014 3012 3010 3009 3009 3008 3007 3006 3005 3005 3005 3006 3006 3006 3004 3003 3000 2998 2996 2993 2993 2996 3000 3002 3004 3006 3009 3009 3007 3006 3005 3004
3025 3023 3021 3019 3017 3015 3013 3010 3008 3006 3004 3002 3000 2998 2997 2997 2996 2995 2994 2994 2993 2994 2994 2994 2993 2992 2989 2987 2985 2984 2983 2985 2988 2990 2994 2997 2998 2998 2998 2997 2997 2996 2996
3014 3013 3011 3007 3006 3003 3001 2999 2997 2995 2992 2990 2988 2986 2985 2985 2983 2982 2983 2983 2982 2982 2982 2982 2981 2980 2979 2977 2976 2974 2975 2977 2981 2984 2988 2989 2988 2988 2987 2987 2988 2987 2986
3005 3003 3001 2999 2996 2993 2990 2987 2985 2983 2980 2979 2977 2975 2973 2972 2971 2970 2969 2971 2971 2971 2971 2970 2970 2970 2968 2966 2965 2965 2968 2972 2974 2977 2979 2980 2980 2979 2978 2979 2980 2978 2976
2994 2992 2989 2986 2984 2981 2979 2977 2975 2973 2969 2967 2966 2964 2962 2960 2959 2959 2958 2958 2958 2958 2958 2958 2957 2957 2956 2955 2956 2958 2962 2965 2967 2968 2970 2972 2971 2971 2971 2970 2970 2968 2966
2983 2980 2978 2976 2973 2970 2967 2964 2963 2962 2958 2956 2954 2953 2952 2949 2948 2949 2948 2948 2947 2947 2946 2946 2946 2945 2946 2947 2948 2952 2954 2958 2961 2962 2963 2964 2963 2963 2962 2962 2960 2958 2955
2972 2969 2967 2963 2962 2958 2956 2952 2950 2949 2947 2945 2943 2940 2940 2938 2936 2936 2937 2937 2935 2935 2935 2934 2934 2934 2936 2939 2943 2946 2949 2950 2954 2956 2955 2955 2955 2954 2953 2953 2951 2949 2946
2960 2959 2956 2953 2949 2946 2944 2940 2938 2938 2936 2933 2932 2931 2930 2928 2927 2925 2927 2926 2926 2925 2923 2924 2925 2927 2931 2934 2938 2942 2944 2946 2946 2947 2948 2946 2946 2945 2945 2943 2941 2937 2933
2949 2946 2943 2941 2938 2934 2932 2929 2928 2927 2924 2922 2921 2919 2920 2919 2918 2917 2918 2918 2918 2918 2919 2919 2920 2925 2929 2931 2933 2937 2938 2939 2939 2941 2940 2938 2937 2936 2933 2931 2928 2925 2922
2938 2935 2932 2931 2928 2924 2922 2920 2919 2917 2915 2912 2910 2910 2910 2911 2913 2913 2914 2914 2914 2917 2919 2919 2919 2923 2926 2930 2932 2932 2932 2933 2933 2934 2933 2930 2928 2925 2922 2919 2917 2915 2911
2926 2925 2922 2920 2917 2915 2914 2914 2914 2913 2912 2910 2905 2905 2906 2908 2911 2912 2912 2910 2912 2914 2917 2918 2918 2920 2922 2924 2926 2927 2927 2926 2925 2925 2923 2920 2917 2915 2912 2910 2905 2902 2899
2916 2915 2914 2914 2907 2907 2908 2907 2907 2907 2906 2908 2907 2903 2903 2906 2908 2910 2910 2908 2911 2913 2915 2916 2917 2917 2917 2918 2919 2919 2918 2917 2916 2915 2914 2911 2907 2905 2902 2898 2894 2891 2887
2909 2909 2906 2906 2901 2901 2901 2900 2902 2903 2903 2906 2906 2902 2903 2906 2908 2908 2906 2907 2908 2910 2911 2911 2911 2912 2912 2911 2911 2910 2910 2908 2906 2905 2902 2899 2895 2892 2888 2885 2881 2878 2874
2902 2901 2899 2898 2897 2897 2898 2898 2898 2899 2901 2904 2903 2902 2904 2906 2905 2905 2903 2903 2905 2905 2905 2905 2905 2906 2905 2904 2903 2902 2900 2897 2895 2892 2888 2885 2881 2877 2874 2870 2867 2864 2861
2895 2895 2895 2895 2895 2895 2896 2896 2896 2897 2899 2901 2900 2900 2902 2901 2901 2900 2899 2899 2900 2899 2898 2899 2898 2898 2896 2895 2893 2890 2888 2884 2881 2877 2874 2870 2866 2863 2860 2857 2854 2851 2849
2892 2892 2892 2891 2891 2893 2893 2893 2894 2895 2896 2896 2897 2897 2897 2896 2895 2895 2895 2894 2894 2892 2891 2890 2889 2887 2885 2883 2880 2877 2873 2869 2865 2861 2857 2854 2851 2848 2846 2843 2840 2838 2837
2888 2887 2887 2887 2888 2889 2890 2890 2890 2890 2891 2892 2893 2892 2892 2891 2890 2888 2888 2886 2885 2883 2881 2879 2877 2875 2871 2868 2865 2861 2857 2853 2849 2846 2842 2839 2837 2834 2832 2830 2828 2826 2825
2884 2884 2884 2884 2884 2885 2885 2886 2886 2886 2887 2887 2887 2886 2885 2883 2882 2880 2879 2877 2875 2873 2870 2866 2863 2859 2856 2852 2848 2845 2841 2837 2833 2830 2828 2825 2823 2821 2819 2817 2815 2814 2814
2879 2879 2879 2879 2879 2880 2881 2881 2881 2881 2881 2880 2879 2878 2876 2874 2872 2870 2867 2865 2862 2858 2854 2850 2845 2842 2838 2834 2831 2827 2823 2820 2818 2816 2814 2812 2810 2808 2807 2806 2804 2804 2804
2873 2873 2874 2874 2875 2875 2875 2875 2874 2874 2873 2872 2871 2869 2866 2864 2861 2858 2854 2850 2846 2842 2838 2834 2829 2825 2821 2817 2814 2811 2808 2805 2803 2801 2800 2798 2797 2796 2795 2794 2793 2794 2794